Tracking 29892 objects as of 21-Nov-2024
HD Live streaming from Space Station
objects crossing your sky now

STARLINK-30509

Track STARLINK-30509 now!
10-day predictions
STARLINK-30509 is classified as:


NORAD ID: 57977
Int'l Code: 2023-151P
Perigee: 565.0 km
Apogee: 567.5 km
Inclination: 43.0 °
Period: 95.8 minutes
Semi major axis: 6937 km
RCS: Unknown
Launch date: September 30, 2023
Source: United States (US)
Launch site: AIR FORCE EASTERN TEST RANGE (AFETR)
Your satellite tracking list
Your tracking list is empty




NASA's NSSDC Master Catalog

Two Line Element Set (TLE):
1 57977U 23151P   24325.68786687  .00001393  00000-0  11821-3 0  9991
2 57977  43.0064  47.7703 0001843 263.3417  96.7215 15.02531783 64278
Source of the keplerian elements: AFSPC